User: anonymous   Login
Location: Byszew
(52.1813°N, 19.2693°E)
Time: 05:57:25
(UTC+00:00)
Language:

Cosmos 1932 - Orbit

View from above orbital plane
View from above orbital plane
View from above satellite
View from above satellite

Ground track
Ground track

The orbit data is extracted from the following two-line orbital elements,

1 18957U 88019A   21127.66639622 -.00000097  00000-0 -88417-5 0  9990
2 18957  65.0448 244.6433 0037715 162.7578 197.4772 13.79688466671632
Epoch (UTC): 07 May 2021 15:59:36
Eccentricity: 0.0037715
inclination: 65.0448°
perigee height: 937 km
apogee height: 992 km
right ascension of ascending node: 244.6433°
argument of perigee: 162.7578°
revolutions per day: 13.79688466
mean anomaly at epoch: 197.4772°
orbit number at epoch: 67163

The dashed part of the orbit path shows where the satellite is in the earth's shadow,  

DLR